Weather Roundup
Issued by NWS Chicago, IL

Home | Current Version | Previous Version | Graphics & Text | Print | Product List | Glossary On
Versions: 1 2 3 4 5 6 7 8 9 10 11 12 13 14 15 16 17 18 19 20 21 22 23 24 25 26 27 28 29 30 31 32 33 34 35 36 37 38 39 40 41 42 43 44 45 46 47 48 49 50
000
NZUS59 KLOT 231900
HRRLOT

CHICAGO AREA WEATHER ROUNDUP
NATIONAL WEATHER SERVICE CHICAGO/ROMEOVILLE IL
200 PM CDT WED APR 23 2014

NOTE: "FAIR" INDICATES FEW OR NO CLOUDS BELOW 12,000 FEET WITH NO
SIGNIFICANT WEATHER AND/OR OBSTRUCTIONS TO VISIBILITY.

* THESE STATIONS ARE NOT UNDER NWS QUALITY CONTROL. THEY ALSO MAY NOT
  REPORT WEATHER SUCH AS PRECIPITATION OR FOG.

ILZ005-006-012>014-019>023-232000-
NORTHEAST ILLINOIS

CITY           SKY/WX    TMP DP  RH WIND       PRES   REMARKS
OHARE          PTSUNNY   50  25  37 E10G16    30.15F
MIDWAY         PTSUNNY   50  28  42 N13       30.15F
AURORA         MOSUNNY   54  27  35 E8        30.14F
WAUKEGAN       SUNNY     44  24  45 MISG      30.17F
DUPAGE AIRPORT MOSUNNY   53  27  36 E5G17     30.13F
WHEELING       SUNNY     47  26  44 E9        30.18F
NORTHERLY IS     N/A     43  31  63 N13         N/A
$$

WIZ051-052-058>065-066-070>072-232000-
SOUTHEAST WISCONSIN

CITY           SKY/WX    TMP DP  RH WIND       PRES   REMARKS
MILWAUKEE      PTSUNNY   44  25  47 NE7       30.19F
KENOSHA*       MOSUNNY   48  26  42 E9        30.18S
RACINE*        SUNNY     44  25  47 E6        30.20S
$$

INZ001>003-010>013-019-020-232000-
NORTHWEST INDIANA

CITY           SKY/WX    TMP DP  RH WIND       PRES   REMARKS
GARY*          MOSUNNY   46  30  53 NE12      30.17F
MICHIGAN CITY* NOT AVBL
RENSSELAER*    NOT AVBL
VALPARAISO     SUNNY     49  30  48 N9        30.14F
$$

LMZ740>746-232000-
SOUTHERN LAKE MICHIGAN

STATION/POSITION TIME  SKY/WX   TEMP WIND        PRES    VSBY
                                AIR  DIR/SP/G
                 (UTC)          (F)  (DEG/KT/KT) (MB)    (MI)
HARRISON CRIB    1800            37  360/ 10/ 12   N/A
BURNHAM HARBOR   1900            42   20/  9/ 11   N/A
CALUMET HARBOR   1800            41  340/  8/ 12 1022.7F
BURNS HARBOR     NOT AVBL
MICHIGAN CITY    1800            38  320/ 12/ 14   N/A
$$

ABBREVIATIONS USED IN REMARKS
   TC - TEMPERATURE IN CELSIUS
  WCI - WIND CHILL INDEX
   HX - HEAT INDEX
  VSB - VISIBILITY
$$


USA.gov is the U.S. government's official web portal to all federal, state and local government web resources and services.